FW0019 Weather Reports


time (UTC)temp
C
wind
direction
speed
KPH
gust
KPH
rain 1hr
cm
rain 24hr
cm
rain mn
cm
humidity
%
barometer
mb
20260510064544 10 294 1.6 4.8 0.00 0.00 0.00 52 878.1
20260510063045 10 294 0.0 0.0 0.00 0.00 0.00 34 877.9
20260510061549 10 294 0.0 0.0 0.00 0.00 0.00 50 877.9
20260510060042 10 294 0.0 0.0 0.00 0.00 0.00 42 878.0
20260510054547 10 294 0.0 0.0 0.00 0.00 0.00 42 878.1
20260510053041 10 294 0.0 0.0 0.00 0.00 0.00 46 878.1
20260510051540 10 49 0.0 0.0 0.00 0.00 0.00 62 878.1
20260510050037 10 49 0.0 0.0 0.00 0.00 0.00 44 878.0
20260510044536 11 49 0.0 0.0 0.00 0.00 0.00 40 878.0
20260510043033 11 49 0.0 0.0 0.00 0.00 0.00 44 878.0
20260510041531 11 49 0.0 0.0 0.00 0.00 0.00 52 877.9
20260510040034 11 49 0.0 0.0 0.00 0.00 0.00 37 877.8
20260510034533 12 49 0.0 0.0 0.00 0.00 0.00 43 877.8
20260510033031 12 49 0.0 0.0 0.00 0.00 0.00 42 877.7
20260510031541 13 49 0.0 3.2 0.00 0.00 0.00 51 877.3
20260510030029 14 49 0.0 0.0 0.00 0.00 0.00 53 877.1
20260510024540 15 49 1.6 6.4 0.00 0.00 0.00 59 877.1
20260510023028 16 93 0.0 8.0 0.00 0.00 0.00 62 877.0
20260510021527 17 107 4.8 8.0 0.00 0.00 0.00 63 876.9
20260510020026 18 78 4.8 14.5 0.00 0.00 0.00 62 876.9
20260510014525 18 139 8.0 19.3 0.00 0.00 0.00 61 876.9
20260510013025 19 105 14.5 24.1 0.00 0.00 0.00 59 876.9
20260510011534 20 175 12.9 24.1 0.00 0.00 0.00 57 876.9
20260510010022 20 125 14.5 20.9 0.00 0.00 0.00 55 877.0
20260510004523 21 159 12.9 24.1 0.00 0.00 0.00 55 876.9
20260510003046 21 114 14.5 27.4 0.00 0.00 0.00 53 877.0
20260510001523 22 123 14.5 29.0 0.00 0.00 0.00 52 876.9
20260510000021 22 121 14.5 25.7 0.00 0.00 0.00 50 876.9
20260509234527 22 132 14.5 27.4 0.00 0.00 0.00 50 876.9
20260509233022 22 109 16.1 24.1 0.00 0.00 0.00 48 877.0
20260509231528 22 148 17.7 29.0 0.00 0.00 0.00 47 877.0
20260509230028 23 133 16.1 27.4 0.00 0.00 0.00 48 877.1
20260509224518 23 153 12.9 25.7 0.00 0.00 0.00 46 877.3
20260509223015 23 142 16.1 30.6 0.00 0.00 0.00 45 877.3
20260509221514 23 169 16.1 29.0 0.00 0.00 0.00 40 877.4
20260509220013 24 140 14.5 27.4 0.00 0.00 0.00 39 877.7
20260509214513 24 135 17.7 27.4 0.00 0.00 0.00 35 877.8
20260509213013 24 154 14.5 27.4 0.00 0.00 0.00 37 877.8
20260509211512 24 141 17.7 25.7 0.00 0.00 0.00 37 877.9
20260509210015 24 140 14.5 24.1 0.00 0.00 0.00 37 878.1
20260509204511 25 125 16.1 27.4 0.00 0.00 0.00 35 878.2
20260509203014 24 138 16.1 25.7 0.00 0.00 0.00 36 878.2
20260509201511 24 178 16.1 25.7 0.00 0.00 0.00 33 878.3
20260509200009 24 169 16.1 25.7 0.00 0.00 0.00 34 878.4
20260509194512 24 136 14.5 24.1 0.00 0.00 0.00 36 878.4
20260509193009 24 123 12.9 24.1 0.00 0.00 0.00 32 878.4
20260509191507 25 144 11.3 24.1 0.00 0.00 0.00 35 878.5
20260509190008 24 175 12.9 22.5 0.00 0.00 0.00 34 878.5
20260509184502 23 177 9.7 19.3 0.00 0.00 0.00 35 878.6
20260509183139 23 140 12.9 20.9 0.00 0.00 0.00 34 878.7
20260509181615 23 125 11.3 19.3 0.00 0.00 0.00 33 878.7
20260509180058 22 104 11.3 16.1 0.00 0.00 0.00 37 878.7
20260509174555 22 136 11.3 19.3 0.00 0.00 0.00 25 878.7
20260509173100 22 119 11.3 16.1 0.00 0.00 0.00 28 878.6
20260509171548 21 105 9.7 16.1 0.00 0.00 0.00 34 878.5
20260509170046 21 105 9.7 14.5 0.00 0.00 0.00 37 878.4
20260509164544 20 110 8.0 16.1 0.00 0.00 0.00 40 878.4
20260509163041 20 127 6.4 16.1 0.00 0.00 0.00 42 878.3
20260509161539 19 137 11.3 19.3 0.00 0.00 0.00 47 878.3
20260509160039 19 140 11.3 17.7 0.00 0.00 0.00 43 878.2
20260509154536 19 109 8.0 14.5 0.00 0.00 0.00 44 878.0
20260509153033 18 138 6.4 11.3 0.00 0.00 0.00 46 878.0
20260509151529 17 130 6.4 12.9 0.00 0.00 0.00 48 878.0
20260509150026 17 107 9.7 14.5 0.00 0.00 0.00 46 878.0
20260509144534 16 121 4.8 8.0 0.00 0.00 0.00 50 877.9
20260509143020 15 122 4.8 11.3 0.00 0.00 0.00 50 877.9
20260509141517 15 125 6.4 9.7 0.00 0.00 0.00 49 877.8
20260509140015 14 128 4.8 8.0 0.00 0.00 0.00 46 877.7
20260509134514 13 134 3.2 4.8 0.00 0.00 0.00 51 877.6
20260509133013 12 107 3.2 9.7 0.00 0.00 0.00 48 877.6
20260509131511 12 100 6.4 12.9 0.00 0.00 0.00 50 877.6
20260509130011 11 119 4.8 8.0 0.00 0.00 0.00 48 877.4
20260509124507 12 130 6.4 11.3 0.00 0.00 0.00 44 877.5
20260509123005 12 121 6.4 9.7 0.00 0.00 0.00 39 877.3
20260509121502 13 125 6.4 11.3 0.00 0.00 0.00 28 877.3
20260509120002 13 115 8.0 12.9 0.00 0.00 0.00 18 877.3
20260509114502 14 151 8.0 14.5 0.00 0.00 0.00 17 877.3
20260509113100 13 119 8.0 14.5 0.00 0.00 0.00 18 877.4
20260509111558 13 128 6.4 12.9 0.00 0.00 0.00 21 877.4
20260509110057 13 123 6.4 12.9 0.00 0.00 0.00 23 877.5
20260509104556 13 134 6.4 9.7 0.00 0.00 0.00 25 877.6
20260509103056 12 128 4.8 8.0 0.00 0.00 0.00 32 877.7
20260509101557 13 136 6.4 11.3 0.00 0.00 0.00 38 877.7
20260509100055 13 123 8.0 14.5 0.00 0.00 0.00 37 877.7
20260509094552 13 115 8.0 16.1 0.00 0.00 0.00 26 877.7
20260509093057 12 139 4.8 9.7 0.00 0.00 0.00 39 877.8
20260509091548 12 121 6.4 9.7 0.00 0.00 0.00 42 877.9
20260509090047 12 153 6.4 11.3 0.00 0.00 0.00 44 878.0
20260509084553 12 144 4.8 12.9 0.00 0.00 0.00 47 878.1
20260509083041 13 157 6.4 11.3 0.00 0.00 0.00 44 878.2
20260509081541 14 110 8.0 17.7 0.00 0.00 0.00 40 878.2
20260509080049 13 111 9.7 14.5 0.00 0.00 0.00 38 878.3
20260509074536 14 107 6.4 14.5 0.00 0.00 0.00 36 878.5
20260509073033 15 133 9.7 19.3 0.00 0.00 0.00 31 878.6
20260509071524 15 143 11.3 14.5 0.00 0.00 0.00 18 878.6
20260509070022 15 139 6.4 12.9 0.00 0.00 0.00 20 878.7